#timestamp,LO_Frequency,Hit,StdDev 
1582156815.1,286047002.4,N
1582156816.0,286047002.4,N
1582156835.8,286047002.1,N
1582156855.7,286046999.7,N
1582156875.5,286047000.0,N
1582156895.3,286047000.5,N
1582156915.2,286047002.8,N
1582156935.0,286046999.9,N
1582156935.9,286046999.9,N
1582156955.8,286047001.9,N
1582156975.6,286046999.7,N
1582156995.4,286047001.6,N
1582157015.3,286047005.6,Y
1582157035.1,286047002.0,P
1582157055.9,286047002.7,P
1582157075.7,286047000.4,N
1582157095.5,286046999.8,N
1582157115.4,286047000.1,N
1582157135.2,286046999.8,N
1582157155.1,286047001.7,N
1582157156.0,286047001.7,N
1582157175.8,286046999.7,N
1582157195.6,286047003.7,Y
1582157215.5,286047000.5,P
1582157235.3,286047001.2,P
1582157255.1,286046999.7,N
1582157275.9,286047000.9,N
1582157295.7,286047002.6,Y
1582157315.6,286047004.4,P
1582157335.4,286047002.2,N
1582157355.2,286047000.4,N
1582157375.1,286046998.3,N
1582157376.0,286046998.3,N
1582157395.8,286046998.8,N
1582157415.7,286046998.5,N
1582157435.5,286046998.7,N
1582157455.3,286047000.9,N
1582157475.2,286047004.1,N
1582157495.0,286047002.4,N
1582157495.9,286047002.4,N
1582157515.8,286047000.4,N
1582157535.6,286046999.7,N
1582157555.4,286047002.6,N
1582157575.3,286047001.8,N
1582157595.1,286047002.5,N
1582157615.8,286047004.2,N
1582157635.7,286047002.3,N
1582157655.5,286046999.7,N
1582157675.4,286047000.3,N
1582157695.2,286047000.5,N
1582157715.0,286046999.9,N
1582157715.9,286046999.9,N
1582157735.8,286047002.8,N
1582157755.6,286047004.3,N
1582157775.5,286047004.2,N
1582157795.3,286047001.7,N
1582157815.1,286047001.4,N
1582157835.9,286047004.4,N
1582157855.7,286047002.1,N
1582157875.5,286047000.0,N
1582157895.4,286047000.7,N
1582157915.2,286047001.1,N
1582157935.1,286047002.2,N
1582157936.0,286047002.2,N
1582157955.8,286047002.1,N
1582157975.6,286047003.2,N
1582157995.5,286047003.6,N
1582158015.3,286047003.7,N
1582158035.2,286047001.7,N
1582158055.9,286047001.6,N
1582158075.7,286047001.4,N
1582158095.6,286047001.5,N
1582158115.4,286047001.9,N
1582158135.2,286047003.7,N
1582158155.1,286047001.8,N
1582158156.0,286047001.8,N
1582158175.8,286047003.5,N
1582158195.7,286047001.3,N
1582158215.5,286047005.7,Y
1582158235.3,286047001.7,P
1582158255.2,286047000.4,N
1582158275.0,286046996.5,P
1582158275.9,286046996.5,N
1582158295.8,286046999.5,N
1582158315.6,286047000.0,N
1582158335.4,286047001.7,N
1582158355.3,286047002.0,N
1582158375.1,286047002.7,N
1582158395.9,286047002.2,N
1582158415.7,286047002.7,N
1582158435.5,286047002.8,N
1582158455.4,286047001.4,N
1582158475.2,286047002.0,N
1582158495.0,286047002.0,N
1582158495.9,286047002.0,N
1582158515.8,286047000.1,N
1582158535.6,286046999.8,N
1582158555.5,286046999.7,N
1582158575.3,286047000.9,N
1582158595.1,286046998.8,N
1582158615.9,286046998.7,N
1582158635.7,286046999.0,N
1582158655.5,286046998.3,N
1582158705.4,286046999.2,E
1582158715.3,286046998.7,N
1582158735.2,286046998.3,P
1582158755.0,286047002.4,P
1582158755.9,286047002.4,N
1582158775.8,286047003.2,N
1582158795.6,286047004.4,N
1582158815.4,286047000.6,N
1582158835.3,286046999.8,N
1582158855.1,286047000.6,N
1582158875.8,286046998.3,N
1582158895.7,286046998.4,N
1582158915.5,286046996.7,N
1582158935.4,286046996.7,N
1582158955.2,286046999.2,N
1582158975.0,286046996.8,N
1582158975.9,286046996.8,N
1582158995.8,286046999.4,N
1582159015.6,286046998.5,N
1582159035.5,286047000.2,N
1582159055.3,286047001.5,N
1582159075.1,286047003.2,N
1582159095.9,286047003.7,N
1582159115.7,286047003.9,N
1582159135.5,286047003.9,N
1582159155.4,286047001.6,N
1582159175.2,286047003.9,N
1582159195.1,286047004.1,N
1582159196.0,286047004.1,N
1582159215.8,286047001.4,N
1582159235.6,286047001.3,N
1582159255.5,286047004.2,N
1582159275.3,286047003.9,N
1582159295.2,286047001.6,N
1582159315.9,286046998.1,N
1582159335.7,286047000.9,N
1582159355.6,286047002.7,N
1582159375.4,286047002.2,N
1582159395.2,286047004.0,N
1582159415.1,286047005.0,N
1582159416.0,286047005.0,N
1582159435.8,286047003.4,N
1582159455.7,286047002.7,N
1582159475.5,286047004.4,N
1582159495.3,286047003.0,N
1582159515.2,286047003.0,N
1582159535.0,286047002.9,N
1582159535.9,286047002.9,N
1582159555.8,286047001.7,N
1582159575.6,286047003.0,N
1582159595.4,286047005.4,Y
1582159615.3,286047004.1,P
1582159635.1,286047002.2,P
1582159655.9,286047001.8,N
1582159675.7,286047002.0,N
1582159695.5,286047001.4,N
1582159715.4,286047004.3,Y
1582159735.2,286046998.9,P
1582159755.1,286046998.6,N
1582159756.0,286046998.6,N
1582159775.8,286046998.9,N
1582159795.6,286046999.0,N
1582159815.5,286046998.9,N
1582159835.3,286046998.2,N
1582159855.1,286046999.4,N
1582159875.9,286047000.0,N
1582159895.7,286047000.2,N
1582159915.6,286046996.8,N
1582159935.4,286046997.1,N
1582159955.2,286046998.6,N
1582159975.1,286046999.6,N
1582159976.0,286046999.6,N
1582159995.8,286046998.5,N
1582160015.7,286046999.2,N
1582160035.5,286046997.6,N
1582160055.3,286046996.5,N
1582160075.2,286046998.8,N
1582160095.0,286046996.7,N
1582160095.9,286046996.7,N
1582160115.7,286046999.0,N
1582160135.6,286047001.0,N
1582160155.4,286047000.5,N
1582160175.3,286046998.6,N
1582160195.1,286046998.1,N
1582160196.0,286046998.1,N
1582160215.8,286046999.3,N
1582160235.7,286046996.9,N
1582160255.5,286046997.4,N
1582160275.4,286046996.8,N
1582160295.2,286047001.2,N
1582160315.0,286047000.2,N
1582160315.9,286047000.2,N
1582160335.8,286046998.9,N
1582160355.6,286046998.9,N
1582160375.4,286046998.2,N
1582160395.3,286047002.4,N
